Terminal Aerodrome Forecast
Issued by NWS

Current Version | Previous Version | Text Only | Print | Product List | Glossary On
Versions: 1 2 3 4 5 6 7 8 9 10 11 12 13 14 15 16 17 18 19 20 21 22 23 24
000
FTUS45 KABQ 011200 AAA
TAFSAF
TAF AMD
KSAF 011222Z 0112/0212 15009KT P6SM SCT120
      TEMPO 0112/0114 BKN022
     FM012300 12011KT P6SM VCTS SCT060CB BKN100
      TEMPO 0200/0203 VRB15G23KT 6SM TSRA BKN050CB
     FM020300 13010KT P6SM VCSH BKN040 OVC070=

USA.gov is the U.S. government's official web portal to all federal, state and local government web resources and services.